Time,TemperatureF,DewpointF,PressureIn,WindDirection,WindDirectionDegrees,WindSpeedMPH,WindSpeedGustMPH,Humidity,HourlyPrecipIn,Conditions,Clouds,dailyrainin,SolarRadiationWatts/m^2,SoftwareType,DateUTC
2013-08-13 00:21:00,55.0,51.0,-100.00,South,186,4.0,8.0,86,0.00,,,0.00,0.000000,,2013-08-13 08:21:00,
2013-08-13 00:31:00,55.0,51.0,-100.00,South,186,4.0,8.0,86,0.00,,,0.00,0.000000,,2013-08-13 08:31:00,
2013-08-13 00:42:00,55.0,51.0,-100.00,South,186,4.0,8.0,86,0.00,,,0.00,0.000000,,2013-08-13 08:42:00,
2013-08-13 00:51:00,55.0,51.0,-100.00,South,186,4.0,8.0,86,0.00,,,0.00,0.000000,,2013-08-13 08:51:00,
2013-08-13 01:21:00,54.0,51.0,-100.00,SSW,197,4.0,9.0,88,0.00,,,0.00,0.000000,,2013-08-13 09:21:00,
2013-08-13 01:32:00,54.0,51.0,-100.00,SSW,197,4.0,9.0,88,0.00,,,0.00,0.000000,,2013-08-13 09:32:00,
2013-08-13 01:43:00,54.0,51.0,-100.00,SSW,197,4.0,9.0,88,0.00,,,0.00,0.000000,,2013-08-13 09:43:00,
2013-08-13 01:53:00,54.0,51.0,-100.00,SSW,197,4.0,9.0,88,0.00,,,0.00,0.000000,,2013-08-13 09:53:00,
2013-08-13 02:23:00,52.0,50.0,-100.00,SSW,195,5.0,10.0,92,0.00,,,0.00,0.000000,,2013-08-13 10:23:00,
2013-08-13 02:32:00,52.0,50.0,-100.00,SSW,195,5.0,10.0,92,0.00,,,0.00,0.000000,,2013-08-13 10:32:00,
2013-08-13 02:42:00,52.0,50.0,-100.00,SSW,195,5.0,10.0,92,0.00,,,0.00,0.000000,,2013-08-13 10:42:00,
2013-08-13 02:52:00,52.0,50.0,-100.00,SSW,195,5.0,10.0,92,0.00,,,0.00,0.000000,,2013-08-13 10:52:00,
2013-08-13 03:22:00,51.0,50.0,-100.00,South,176,4.0,8.0,96,0.00,,,0.00,0.000000,,2013-08-13 11:22:00,
2013-08-13 03:31:00,51.0,50.0,-100.00,South,176,4.0,8.0,96,0.00,,,0.00,0.000000,,2013-08-13 11:31:00,
2013-08-13 03:42:00,51.0,50.0,-100.00,South,176,4.0,8.0,96,0.00,,,0.00,0.000000,,2013-08-13 11:42:00,
2013-08-13 03:51:00,51.0,50.0,-100.00,South,176,4.0,8.0,96,0.00,,,0.00,0.000000,,2013-08-13 11:51:00,
2013-08-13 04:21:00,51.0,50.0,-100.00,South,191,3.0,7.0,98,0.00,,,0.00,0.000000,,2013-08-13 12:21:00,
2013-08-13 04:31:00,51.0,50.0,-100.00,South,191,3.0,7.0,98,0.00,,,0.00,0.000000,,2013-08-13 12:31:00,
2013-08-13 04:42:00,51.0,50.0,-100.00,South,191,3.0,7.0,98,0.00,,,0.00,0.000000,,2013-08-13 12:42:00,
2013-08-13 04:51:00,51.0,50.0,-100.00,South,191,3.0,7.0,98,0.00,,,0.00,0.000000,,2013-08-13 12:51:00,
2013-08-13 05:21:00,51.0,50.0,-100.00,South,182,3.0,6.0,98,0.00,,,0.00,0.000000,,2013-08-13 13:21:00,
2013-08-13 05:32:00,51.0,50.0,-100.00,South,182,3.0,6.0,98,0.00,,,0.00,0.000000,,2013-08-13 13:32:00,
2013-08-13 05:41:00,51.0,50.0,-100.00,South,182,3.0,6.0,98,0.00,,,0.00,0.000000,,2013-08-13 13:41:00,
2013-08-13 05:52:00,51.0,50.0,-100.00,South,182,3.0,6.0,98,0.00,,,0.00,0.000000,,2013-08-13 13:52:00,
2013-08-13 06:21:00,51.0,50.0,-100.00,South,187,3.0,7.0,98,0.00,,,0.00,5.000000,,2013-08-13 14:21:00,
2013-08-13 06:31:00,51.0,50.0,-100.00,South,187,3.0,7.0,98,0.00,,,0.00,5.000000,,2013-08-13 14:31:00,
2013-08-13 06:42:00,51.0,50.0,-100.00,South,187,3.0,7.0,98,0.00,,,0.00,5.000000,,2013-08-13 14:42:00,
2013-08-13 06:52:00,51.0,50.0,-100.00,South,187,3.0,7.0,98,0.00,,,0.00,5.000000,,2013-08-13 14:52:00,
2013-08-13 07:21:00,52.0,51.0,-100.00,South,176,3.0,6.0,98,0.00,,,0.00,13.000000,,2013-08-13 15:21:00,
2013-08-13 07:35:00,52.0,51.0,-100.00,South,176,3.0,6.0,98,0.00,,,0.00,13.000000,,2013-08-13 15:35:00,
2013-08-13 07:44:00,52.0,51.0,-100.00,South,176,3.0,6.0,98,0.00,,,0.00,13.000000,,2013-08-13 15:44:00,
2013-08-13 07:54:00,52.0,51.0,-100.00,South,176,3.0,6.0,98,0.00,,,0.00,13.000000,,2013-08-13 15:54:00,
2013-08-13 08:23:00,53.0,52.0,-100.00,South,183,3.0,6.0,98,0.00,,,0.00,33.000000,,2013-08-13 16:23:00,
2013-08-13 08:36:00,53.0,52.0,-100.00,South,183,3.0,6.0,98,0.00,,,0.00,33.000000,,2013-08-13 16:36:00,
2013-08-13 08:45:00,53.0,52.0,-100.00,South,183,3.0,6.0,98,0.00,,,0.00,33.000000,,2013-08-13 16:45:00,
2013-08-13 08:54:00,53.0,52.0,-100.00,South,183,3.0,6.0,98,0.00,,,0.00,33.000000,,2013-08-13 16:54:00,
2013-08-13 08:55:00,54.0,53.0,-100.00,SSW,201,3.0,6.0,98,0.00,,,0.00,118.000000,,2013-08-13 16:55:00,
2013-08-13 09:27:00,54.0,53.0,-100.00,SSW,201,3.0,6.0,98,0.00,,,0.00,118.000000,,2013-08-13 17:27:00,
2013-08-13 09:37:00,54.0,53.0,-100.00,SSW,201,3.0,6.0,98,0.00,,,0.00,118.000000,,2013-08-13 17:37:00,
2013-08-13 09:45:00,-999.0,-99.9,-100.00,SSW,201,3.0,6.0,98,0.00,,,0.00,118.000000,,2013-08-13 17:45:00,
2013-08-13 09:55:00,56.0,55.0,-100.00,SSW,193,4.0,6.0,98,0.00,,,0.00,219.000000,,2013-08-13 17:55:00,
2013-08-13 10:25:00,56.0,55.0,-100.00,SSW,193,4.0,6.0,98,0.00,,,0.00,219.000000,,2013-08-13 18:25:00,
2013-08-13 10:37:00,56.0,55.0,-100.00,SSW,193,4.0,6.0,98,0.00,,,0.00,219.000000,,2013-08-13 18:37:00,
2013-08-13 10:44:00,56.0,55.0,-100.00,SSW,193,4.0,6.0,98,0.00,,,0.00,219.000000,,2013-08-13 18:44:00,
2013-08-13 11:44:00,60.0,56.0,-100.00,SW,217,5.0,9.0,87,0.00,,,0.00,382.000000,,2013-08-13 19:44:00,
2013-08-13 12:45:00,63.0,57.0,-100.00,SSW,204,4.0,9.0,81,-99.99,,,0.00,415.000000,,2013-08-13 20:45:00,
2013-08-13 12:53:00,63.0,57.0,-100.00,SSW,204,4.0,9.0,81,-99.99,,,0.00,415.000000,,2013-08-13 20:53:00,
2013-08-13 13:55:00,64.0,56.0,-100.00,South,186,6.0,11.0,75,-99.99,,,0.00,360.000000,,2013-08-13 21:55:00,
2013-08-13 14:22:00,64.0,56.0,-100.00,South,186,6.0,11.0,75,-99.99,,,0.00,360.000000,,2013-08-13 22:22:00,
2013-08-13 14:35:00,64.0,56.0,-100.00,South,186,6.0,11.0,75,-99.99,,,0.00,360.000000,,2013-08-13 22:35:00,
2013-08-13 14:50:00,64.0,56.0,-100.00,South,186,6.0,11.0,75,-99.99,,,0.00,360.000000,,2013-08-13 22:50:00,
2013-08-13 14:55:00,64.0,56.0,-100.00,South,173,4.0,11.0,75,0.00,,,0.00,287.000000,,2013-08-13 22:55:00,
2013-08-13 15:26:00,64.0,56.0,-100.00,South,173,4.0,11.0,75,0.00,,,0.00,287.000000,,2013-08-13 23:26:00,
2013-08-13 15:35:00,64.0,56.0,-100.00,South,173,4.0,11.0,75,0.00,,,0.00,287.000000,,2013-08-13 23:35:00,
2013-08-13 15:46:00,64.0,56.0,-100.00,South,173,4.0,11.0,75,0.00,,,0.00,287.000000,,2013-08-13 23:46:00,
2013-08-13 16:42:00,65.0,57.0,-100.00,SSW,199,5.0,9.0,75,-99.99,,,0.00,273.000000,,2013-08-14 00:42:00,
2013-08-13 17:42:00,64.0,56.0,-100.00,SSW,202,4.0,9.0,74,-99.99,,,0.00,219.000000,,2013-08-14 01:42:00,
2013-08-13 17:52:00,64.0,56.0,-100.00,SSW,202,4.0,9.0,74,-99.99,,,0.00,219.000000,,2013-08-14 01:52:00,
2013-08-13 18:21:00,62.0,55.0,-100.00,SSW,194,5.0,9.0,77,0.00,,,0.00,104.000000,,2013-08-14 02:21:00,
2013-08-13 18:32:00,62.0,55.0,-100.00,SSW,194,5.0,9.0,77,0.00,,,0.00,104.000000,,2013-08-14 02:32:00,
2013-08-13 18:41:00,62.0,55.0,-100.00,SSW,194,5.0,9.0,77,0.00,,,0.00,104.000000,,2013-08-14 02:41:00,
2013-08-13 18:51:00,62.0,55.0,-100.00,SSW,194,5.0,9.0,77,0.00,,,0.00,104.000000,,2013-08-14 02:51:00,
2013-08-13 19:22:00,61.0,55.0,-100.00,South,188,3.0,10.0,81,0.00,,,0.00,50.000000,,2013-08-14 03:22:00,
2013-08-13 19:33:00,61.0,55.0,-100.00,South,188,3.0,10.0,81,0.00,,,0.00,50.000000,,2013-08-14 03:33:00,
2013-08-13 19:43:00,61.0,55.0,-100.00,South,188,3.0,10.0,81,0.00,,,0.00,50.000000,,2013-08-14 03:43:00,
2013-08-13 19:53:00,61.0,55.0,-100.00,South,188,3.0,10.0,81,0.00,,,0.00,50.000000,,2013-08-14 03:53:00,
2013-08-13 20:23:00,60.0,54.0,-100.00,SSW,192,2.0,5.0,81,0.00,,,0.00,31.000000,,2013-08-14 04:23:00,
2013-08-13 20:32:00,60.0,54.0,-100.00,SSW,192,2.0,5.0,81,0.00,,,0.00,31.000000,,2013-08-14 04:32:00,
2013-08-13 20:42:00,60.0,54.0,-100.00,SSW,192,2.0,5.0,81,0.00,,,0.00,31.000000,,2013-08-14 04:42:00,
2013-08-13 20:52:00,60.0,54.0,-100.00,SSW,192,2.0,5.0,81,0.00,,,0.00,31.000000,,2013-08-14 04:52:00,
2013-08-13 21:22:00,59.0,54.0,-100.00,South,173,2.0,5.0,84,0.00,,,0.00,4.000000,,2013-08-14 05:22:00,
2013-08-13 21:31:00,59.0,54.0,-100.00,South,173,2.0,5.0,84,0.00,,,0.00,4.000000,,2013-08-14 05:31:00,
2013-08-13 21:42:00,59.0,54.0,-100.00,South,173,2.0,5.0,84,0.00,,,0.00,4.000000,,2013-08-14 05:42:00,
2013-08-13 21:51:00,59.0,54.0,-100.00,South,173,2.0,5.0,84,0.00,,,0.00,4.000000,,2013-08-14 05:51:00,
2013-08-13 22:21:00,58.0,54.0,-100.00,SSE,151,1.0,4.0,86,0.00,,,0.00,0.000000,,2013-08-14 06:21:00,
2013-08-13 22:31:00,58.0,54.0,-100.00,SSE,151,1.0,4.0,86,0.00,,,0.00,0.000000,,2013-08-14 06:31:00,
2013-08-13 22:42:00,58.0,54.0,-100.00,SSE,151,1.0,4.0,86,0.00,,,0.00,0.000000,,2013-08-14 06:42:00,
2013-08-13 22:52:00,58.0,54.0,-100.00,SSE,151,1.0,4.0,86,0.00,,,0.00,0.000000,,2013-08-14 06:52:00,
2013-08-13 23:21:00,58.0,54.0,-100.00,SSE,149,1.0,3.0,88,0.00,,,0.00,0.000000,,2013-08-14 07:21:00,
2013-08-13 23:31:00,58.0,54.0,-100.00,SSE,149,1.0,3.0,88,0.00,,,0.00,0.000000,,2013-08-14 07:31:00,
2013-08-13 23:41:00,58.0,54.0,-100.00,SSE,149,1.0,3.0,88,0.00,,,0.00,0.000000,,2013-08-14 07:41:00,
2013-08-13 23:52:00,58.0,54.0,-100.00,SSE,149,1.0,3.0,88,0.00,,,0.00,0.000000,,2013-08-14 07:52:00,